Location: Karwodrza
(49.9217°N, 21.0454°E)
Time: 07:20:05
(UTC+01:00)

ISS - Pass Details

Date: 29 October 2019
Orbit: 412 x 421 km, 51.6° (Epoch: 14 November)

Event Time Altitude Azimuth Distance (km) Brightness Sun altitude
Exits shadow 03:24:50 14° 116° (ESE) 1,292 -0.8 -28.5°
Drops below altitude 10° 03:25:51 10° 100° (E) 1,507 -0.1 -28.3°
Sets 03:28:32 0° 77° (ENE) 2,374 1.3 -27.9°
